[TLELIST] Archives

 

[TLELIST] Current TLEs

April 15th 2024 PDT

HST 1 20580U 90037B 24105.90955786 .00008176 00000-0 39631-3 0 9992 2 20580 28.4691 48.7882 0002667 65.3661 294.7209 15.16710571667413 ISS (ZARYA) 1 25544U 98067A 24106.11269851 .00018641 00000-0 33130-3 0 9999 2 25544 51.6384 268.1571 0004667 67.4021 292.7461 15.50210893448766 CXO 1 25867U 99040B 24107.04238756 .00000910 00000-0 00000-0 0 9999 2 25867 39.8445 159.8670 8948994 292.0276 359.9148 0.37809104 14330 ...Continue Reading

[TLELIST] Current TLEs

April 15th 2024 PDT

HST 1 20580U 90037B 24105.90955786 .00008176 00000-0 39631-3 0 9992 2 20580 28.4691 48.7882 0002667 65.3661 294.7209 15.16710571667413 ISS (ZARYA) 1 25544U 98067A 24106.11269851 .00018641 00000-0 33130-3 0 9999 2 25544 51.6384 268.1571 0004667 67.4021 292.7461 15.50210893448766 CXO 1 25867U 99040B 24107.04238756 .00000910 00000-0 00000-0 0 9999 2 25867 39.8445 159.8670 8948994 292.0276 359.9148 0.37809104 14330 ...Continue Reading

[TLELIST] Current TLEs

April 15th 2024 PDT

HST 1 20580U 90037B 24105.90955786 .00008176 00000-0 39631-3 0 9992 2 20580 28.4691 48.7882 0002667 65.3661 294.7209 15.16710571667413 ISS (ZARYA) 1 25544U 98067A 24106.11269851 .00018641 00000-0 33130-3 0 9999 2 25544 51.6384 268.1571 0004667 67.4021 292.7461 15.50210893448766 CXO 1 25867U 99040B 24107.04238756 .00000910 00000-0 00000-0 0 9999 2 25867 39.8445 159.8670 8948994 292.0276 359.9148 0.37809104 14330 ...Continue Reading

[TLELIST] Current TLEs

April 14th 2024 PDT

HST 1 20580U 90037B 24104.26451997 .00005977 00000-0 28741-3 0 9991 2 20580 28.4692 59.7911 0002646 48.1306 311.9512 15.16684964667168 ISS (ZARYA) 1 25544U 98067A 24104.97805485 .00016120 00000-0 28809-3 0 9997 2 25544 51.6383 273.7776 0004898 65.3145 78.5626 15.50167442448588 CXO 1 25867U 99040B 24107.04238756 .00000910 00000-0 00000-0 0 9999 2 25867 39.8445 159.8670 8948994 292.0276 359.9148 0.37809104 14330 ...Continue Reading

[TLELIST] Current TLEs

April 13th 2024 PDT

HST 1 20580U 90037B 24104.19871790 .00005874 00000-0 28231-3 0 9990 2 20580 28.4692 60.2311 0002662 47.3292 312.7524 15.16684019667413 ISS (ZARYA) 1 25544U 98067A 24104.50678933 .00014597 00000-0 26181-3 0 9999 2 25544 51.6398 276.1075 0004650 66.0875 326.1313 15.50152777448510 CXO 1 25867U 99040B 24104.39900763 .00000859 00000-0 00000-0 0 9990 2 25867 39.7933 160.1482 8951194 291.8037 0.1094 0.37811186 14322 ...Continue Reading

[TLELIST] Current TLEs

April 12th 2024 PDT

HST 1 20580U 90037B 24102.61945783 .00005171 00000-0 24750-3 0 9991 2 20580 28.4690 70.7935 0002529 30.7005 329.3735 15.16665693666918 ISS (ZARYA) 1 25544U 98067A 24103.41988057 .00013578 00000-0 24444-3 0 9997 2 25544 51.6402 281.4944 0004721 62.3602 20.3545 15.50116232448343 CXO 1 25867U 99040B 24104.39900763 .00000859 00000-0 00000-0 0 9990 2 25867 39.7933 160.1482 8951194 291.8037 0.1094 0.37811186 14322 ...Continue Reading

[TLELIST] Current TLEs

April 11th 2024 PDT

HST 1 20580U 90037B 24101.63241124 .00004915 00000-0 23485-3 0 9999 2 20580 28.4688 77.3951 0002457 20.5440 339.5250 15.16655132666761 ISS (ZARYA) 1 25544U 98067A 24102.18017604 .00013592 00000-0 24499-3 0 9997 2 25544 51.6374 287.6432 0004701 55.3920 304.7512 15.50080873448157 CXO 1 25867U 99040B 24104.39900763 .00000859 00000-0 00000-0 0 9990 2 25867 39.7933 160.1482 8951194 291.8037 0.1094 0.37811186 14322 ...Continue Reading

[TLELIST] Current TLEs

April 11th 2024 PDT

HST 1 20580U 90037B 24101.63241124 .00004915 00000-0 23485-3 0 9999 2 20580 28.4688 77.3951 0002457 20.5440 339.5250 15.16655132666761 ISS (ZARYA) 1 25544U 98067A 24102.18017604 .00013592 00000-0 24499-3 0 9997 2 25544 51.6374 287.6432 0004701 55.3920 304.7512 15.50080873448157 CXO 1 25867U 99040B 24104.39900763 .00000859 00000-0 00000-0 0 9990 2 25867 39.7933 160.1482 8951194 291.8037 0.1094 0.37811186 14322 ...Continue Reading

[TLELIST] Current TLEs

April 10th 2024 PDT

HST 1 20580U 90037B 24100.64535772 .00005417 00000-0 25990-3 0 9995 2 20580 28.4685 83.9975 0002400 9.1066 350.9569 15.16646611666618 ISS (ZARYA) 1 25544U 98067A 24101.03904484 .00012558 00000-0 22725-3 0 9992 2 25544 51.6391 293.2963 0004827 53.6203 54.5347 15.50046419447975 CXO 1 25867U 99040B 24101.75442889 .00000852 00000-0 00000-0 0 9990 2 25867 39.7258 160.4924 8952487 291.5303 0.1634 0.37813076 14314 ...Continue Reading

[TLELIST] Current TLEs

April 10th 2024 PDT

HST 1 20580U 90037B 24100.64535772 .00005417 00000-0 25990-3 0 9995 2 20580 28.4685 83.9975 0002400 9.1066 350.9569 15.16646611666618 ISS (ZARYA) 1 25544U 98067A 24101.03904484 .00012558 00000-0 22725-3 0 9992 2 25544 51.6391 293.2963 0004827 53.6203 54.5347 15.50046419447975 CXO 1 25867U 99040B 24101.75442889 .00000852 00000-0 00000-0 0 9990 2 25867 39.7258 160.4924 8952487 291.5303 0.1634 0.37813076 14314 ...Continue Reading
  • This mailing list is a public mailing list - anyone may join or leave, at any time.
  • This mailing list is announce-only.

International Space Station (ISS) / Hubble Space Telescope (HST) / Chandra X-Ray Observatory Orbital Data via EMAIL

Privacy Policy:

Private list